[[{"header":{"parameterUnit":"m.s-1","parameterCategory":1,"la1":30.2991,"la2":30.254,"lo1":-89.0895,"lo2":-89.0444,"dy":0.0017,"dx":0.0017,"nx":28,"ny":28,"refTime":"2024-02-29T03:00:00:Z","depth":0,"parameterNumber":2,"parameterNumberName":"U-component_of_WINDS"},"data":[0,0,0,0,0,0,0,0,0,0,0,0,0,0,0,0,0,0,0,0,0,0,0,0,0,0,0,0,0,0,0,0,0,0,0,0,0,0,0,0,0,0,0,0,0,0,0,0,0,0,0,0,0,0,0,0,0,0,-6.5628,-6.5629,0,-6.5688,-6.5689,-6.569,-6.5521,-6.5516,-6.5511,-6.5506,-6.5567,-6.5573,-6.5579,0,0,0,0,0,0,0,0,0,0,0,0,0,-6.5365,-6.5371,-6.5628,-6.5629,-6.563,-6.5688,-6.5689,-6.569,-6.5522,-6.5516,-6.5509,-6.5503,-6.5565,-6.5572,-6.558,0,0,0,0,0,0,0,0,0,0,0,0,0,-6.5458,-6.5373,-6.5628,-6.5553,-6.5547,-6.5688,-6.5689,-6.569,-6.5523,-6.5515,-6.5508,-6.55,-6.5562,-6.5571,-6.5581,-6.5798,0,0,-6.5611,-6.5615,0,0,0,0,0,0,0,0,-6.5453,-6.5468,-6.5563,-6.5558,-6.5552,-6.5589,-6.5619,-6.5726,-6.5525,-6.5532,-6.5506,-6.5497,-6.558,-6.5588,-6.5617,-6.5801,-6.5803,-6.5612,-6.5618,-6.5622,-6.5624,0,0,0,0,0,0,0,-6.5447,-6.5464,-6.5652,-6.5565,-6.5558,-6.5515,-6.552,-6.5638,-6.5599,-6.5531,-6.5519,-6.5528,-6.5576,-6.5608,-6.5617,-6.5804,-6.5611,-6.562,-6.5626,-6.563,-6.6167,-6.6175,0,0,0,0,0,0,-6.545,-6.546,-6.565,-6.5653,-6.5482,-6.5527,-6.5532,-6.5585,-6.5598,-6.5592,-6.5535,-6.552,-6.5595,-6.5606,-6.5618,-6.5871,-6.5622,-6.5631,-6.5636,-6.6158,-6.6168,-6.6178,0,0,0,0,0,0,-6.5445,-6.5469,-6.5647,-6.5554,-6.5573,-6.5539,-6.5601,-6.559,-6.5622,-6.5601,-6.5593,-6.5575,-6.5589,-6.5605,-6.5754,-6.5871,-6.5635,-6.5644,-6.6148,-6.6161,-6.6173,-6.6379,0,0,0,0,0,0,-6.5439,-6.5468,-6.555,-6.5557,-6.5579,-6.5783,-6.5608,-6.5597,-6.5639,-6.5621,-6.5636,-6.5631,-6.5584,-6.574,-6.5764,-6.588,-6.5652,-6.6138,-6.6154,-6.6169,-6.6362,-6.6397,-6.6428,0,0,0,0,0,-6.543,-6.5606,-6.5556,-6.5579,-6.5681,-6.579,-6.5803,-6.5745,-6.565,-6.5731,-6.5718,-6.563,-6.5855,-6.5757,-6.5782,-6.5903,-6.613,-6.6149,-6.6168,-6.6347,-6.6391,-6.6427,0,0,0,0,0,0,-6.5614,-6.5606,-6.5549,-6.5733,-6.5764,-6.5761,-6.5863,-6.5794,-6.5852,-6.5832,-6.5758,-6.5763,-6.5926,-6.5929,-6.582,-6.6112,-6.5976,-6.6001,-6.6104,-6.6145,-6.6177,-6.6172,-6.566,0,0,0,0,0,-6.5677,-6.5766,-6.5754,-6.5917,-6.5936,-6.5898,-6.5943,-6.5896,-6.5925,-6.5936,-6.5933,-6.5964,-6.6041,-6.6093,-6.6163,-6.6362,-6.6362,-6.6458,-6.6491,-6.6518,-6.654,-6.6643,-6.6685,-6.624,-6.624,-6.6239,0,0,-6.5806,-6.5812,-6.5873,-6.5955,-6.5973,-6.6066,-6.5909,-6.6015,-6.6084,-6.5952,-6.6092,-6.6092,-6.6121,-6.6296,-6.6373,-6.6304,-6.6663,-6.6542,-6.6564,-6.6571,-6.6667,-6.6709,-6.6747,-6.6253,-6.625,-6.6248,0,0,-6.6088,-6.6104,-6.624,-6.6262,-6.6291,-6.6265,-6.6298,-6.6306,-6.6301,-6.6441,-6.6344,-6.6424,-6.6559,-6.6583,-6.6613,-6.6906,-6.6827,-6.6931,-6.7102,-6.7204,-6.7239,-6.727,-6.7373,-6.741,-6.6953,-6.6953,-6.6953,0,-6.6245,-6.6383,-6.6319,-6.6432,-6.647,-6.6356,-6.6493,-6.6517,-6.6568,-6.6597,-6.6519,-6.6685,-6.6697,-6.6875,-6.6946,-6.6975,-6.701,-6.6927,-6.724,-6.727,-6.7297,-6.7394,-6.7433,-6.6965,-6.6964,-6.6963,-6.6962,0,-6.6573,-6.667,-6.6777,-6.6829,-6.6879,-6.7004,-6.6959,-6.7017,-6.6967,-6.6949,-6.7092,-6.7102,-6.7171,-6.721,-6.7162,-6.7382,-6.7338,-6.7252,-6.7113,-6.7353,-6.7443,-6.748,-6.6983,-6.6978,-6.6975,-6.6972,0,0,-6.6972,-6.6988,-6.7028,-6.7049,-6.7074,-6.7147,-6.7267,-6.7334,-6.7385,-6.7425,-6.7522,-6.7639,-6.7558,-6.7593,-6.7546,-6.7637,-6.7865,-6.7538,-6.7538,-6.7597,-6.8106,-6.817,-6.8214,-6.7814,-6.7821,-6.7827,-6.8103,0,-6.7249,-6.7453,-6.74,-6.7603,-6.7691,-6.7584,-6.7688,-6.7714,-6.77,-6.7773,-6.7757,-6.784,-6.7729,-6.7749,-6.7833,-6.782,-6.7966,-6.7799,-6.7903,-6.7907,-6.7897,-6.8261,-6.8329,-6.8589,-6.8138,-6.8144,-6.8148,0,-6.7599,-6.7652,-6.7864,-6.7873,-6.7908,-6.8002,-6.8059,-6.8131,-6.8157,-6.8141,-6.818,-6.8115,-6.8232,-6.8094,-6.8253,-6.8141,-6.818,-6.818,-6.8189,-6.8195,-6.8041,-6.8275,-6.8671,-6.8709,-6.8203,-6.8199,-6.8195,0,-6.7867,-6.7991,-6.8133,-6.8156,-6.817,-6.8239,-6.8248,-6.8267,-6.8311,-6.8362,-6.8389,-6.8453,-6.8487,-6.8538,-6.8492,-6.8396,-6.8658,-6.8517,-6.8646,-6.8648,-6.8705,-6.8701,-6.9111,-6.8734,-6.8734,-6.8733,-6.8732,0,-6.818,-6.8314,-6.8254,-6.8341,-6.8487,-6.8425,-6.8571,-6.8568,-6.8586,-6.867,-6.8583,-6.8664,-6.8599,-6.8674,-6.864,-6.8776,-6.8793,-6.8782,-6.877,-6.8788,-6.879,-6.8812,-6.8792,-6.8743,-6.8741,-6.8739,-6.8737,0,-6.8503,-6.8468,-6.8616,-6.8618,-6.8622,-6.8729,-6.873,-6.8811,-6.8791,-6.8899,-6.892,-6.8889,-6.8973,-6.8933,-6.9021,-6.8997,-6.9173,-6.9138,-6.9164,-6.9154,-6.9285,-6.9273,-6.9721,-6.9776,-6.9367,-6.9371,-6.9374,0,-6.8704,-6.8804,-6.8817,-6.8867,-6.8883,-6.8965,-6.9009,-6.8952,-6.9002,-6.904,-6.9116,-6.9193,-6.925,-6.939,-6.9375,-6.9441,-6.9406,-6.9559,-6.9416,-6.943,-6.9406,-6.94,-6.9409,-6.9587,-6.9592,-6.9596,-6.9599,0,-6.9065,-6.9043,-6.911,-6.9173,-6.9228,-6.9274,-6.9312,-6.9359,-6.9302,-6.9362,-6.9447,-6.9493,-6.9582,-6.9659,-6.9717,-6.9725,-6.9654,-6.9645,-6.9678,-6.9696,-6.9706,-6.9701,-6.924,-6.9634,-6.9631,-6.9628,-6.9626,-6.9625,-6.9331,-6.9415,-6.9437,-6.9515,-6.9538,-6.9576,-6.9651,-6.9641,-6.9711,-6.9779,-6.9741,-6.984,-6.9864,-6.9934,-6.9953,-7.0029,-6.9968,-7.0017,-7.0029,-7.0041,-7.0058,-6.9696,-7.0039,-7.0038,-7.0037,-7.0037,-7.0036,0,-6.9685,-6.9694,-6.9767,-6.9823,-6.9885,-6.9812,-6.9851,-6.9907,-6.9995,-7.0023,-7.0082,-7.018,-7.0254,-7.0245,-7.0312,-7.0375,-7.0344,-7.0395,-7.0388,-7.0391,-7.0109,-7.0073,-7.0419,-7.0419,-7.0419,-7.0419,-7.0419,-7.0419,-6.9877,-7.0014,-6.9994,-7.0142,-7.0149,-7.0245,-7.0274,-7.0308,-7.033,-7.0443,-7.0504,-7.0498,-7.0511,-7.0579,-7.0643,-7.0638,-7.0667,-7.073,-7.0713,-7.0449,-7.0411,-7.0375,-7.034,-7.0737,-7.0738,-7.0988,-7.0991,-7.0993]},{"header":{"parameterUnit":"m.s-1","parameterCategory":1,"la1":30.2991,"la2":30.254,"lo1":-89.0895,"lo2":-89.0444,"dy":0.0017,"dx":0.0017,"nx":28,"ny":28,"refTime":"2024-02-29T03:00:00:Z","depth":0,"parameterNumber":3,"parameterNumberName":"V-component_of_WINDS"},"data":[0,0,0,0,0,0,0,0,0,0,0,0,0,0,0,0,0,0,0,0,0,0,0,0,0,0,0,0,0,0,0,0,0,0,0,0,0,0,0,0,0,0,0,0,0,0,0,0,0,0,0,0,0,0,0,0,0,0,1.4516,1.4517,0,1.4578,1.4579,1.458,1.4583,1.4582,1.4581,1.4581,1.4639,1.4641,1.4643,0,0,0,0,0,0,0,0,0,0,0,0,0,1.4396,1.4398,1.4516,1.4517,1.4518,1.4578,1.4579,1.458,1.4583,1.4582,1.4581,1.458,1.4638,1.4641,1.4643,0,0,0,0,0,0,0,0,0,0,0,0,0,1.4452,1.4399,1.4516,1.4527,1.4528,1.4578,1.4579,1.458,1.4583,1.4582,1.4581,1.458,1.4637,1.464,1.4644,1.4685,0,0,1.4654,1.4655,0,0,0,0,0,0,0,0,1.4449,1.4456,1.4524,1.4526,1.4528,1.4572,1.4558,1.4615,1.4583,1.4562,1.4581,1.4579,1.4617,1.4622,1.4636,1.4688,1.469,1.4654,1.4656,1.4657,1.4658,0,0,0,0,0,0,0,1.4445,1.4454,1.4541,1.4525,1.4528,1.4527,1.4534,1.4569,1.4594,1.4564,1.4564,1.4572,1.4618,1.4632,1.4637,1.4691,1.4654,1.4657,1.4659,1.466,1.478,1.4782,0,0,0,0,0,0,1.444,1.4451,1.4539,1.4542,1.4485,1.453,1.4538,1.4559,1.4594,1.4599,1.4573,1.4572,1.4627,1.4633,1.4639,1.469,1.4657,1.466,1.4662,1.4779,1.4781,1.4782,0,0,0,0,0,0,1.4437,1.4448,1.4536,1.4497,1.4508,1.4533,1.4557,1.456,1.4575,1.4601,1.4605,1.4583,1.4627,1.4634,1.4674,1.4692,1.4662,1.4665,1.4778,1.478,1.4781,1.4792,0,0,0,0,0,0,1.4434,1.4447,1.4464,1.4497,1.451,1.4571,1.4558,1.4562,1.4582,1.4581,1.4612,1.4616,1.4626,1.4669,1.4677,1.4696,1.4667,1.4776,1.4779,1.4781,1.479,1.4794,1.4797,0,0,0,0,0,1.4429,1.4463,1.4465,1.4475,1.4532,1.4572,1.458,1.4593,1.4583,1.46,1.4616,1.4615,1.4689,1.4673,1.4682,1.4702,1.4775,1.4778,1.4781,1.4789,1.4793,1.4797,0,0,0,0,0,0,1.4429,1.4467,1.447,1.4515,1.4541,1.4573,1.4594,1.4597,1.4624,1.4622,1.4636,1.4642,1.4682,1.4696,1.4678,1.4744,1.4731,1.4735,1.4734,1.4738,1.4742,1.4737,1.467,0,0,0,0,0,1.4434,1.4466,1.4497,1.4534,1.4547,1.4569,1.4587,1.4595,1.4621,1.4631,1.465,1.4674,1.4703,1.4721,1.4749,1.4793,1.4799,1.4811,1.4814,1.4817,1.4821,1.4845,1.485,1.4791,1.4791,1.4791,0,0,1.4445,1.447,1.4489,1.4535,1.4556,1.4586,1.4578,1.461,1.4633,1.4635,1.4675,1.469,1.4717,1.4759,1.4778,1.4772,1.4839,1.4821,1.4823,1.4825,1.4848,1.4854,1.4859,1.4793,1.4792,1.4792,0,0,1.4481,1.4504,1.4537,1.4559,1.4591,1.4605,1.4614,1.4646,1.4657,1.4697,1.4699,1.4725,1.4775,1.4794,1.4811,1.4855,1.4855,1.4864,1.4882,1.4905,1.491,1.4914,1.4929,1.4935,1.4867,1.4868,1.4868,0,1.449,1.4538,1.4554,1.4587,1.4607,1.4613,1.4647,1.4666,1.4705,1.4718,1.4711,1.4773,1.4792,1.4839,1.485,1.4863,1.4872,1.486,1.4908,1.4913,1.4917,1.4932,1.4937,1.4868,1.4868,1.4868,1.4868,0,1.4548,1.4581,1.4604,1.4644,1.4666,1.4699,1.4719,1.4739,1.4745,1.476,1.48,1.4824,1.4856,1.4868,1.4873,1.4915,1.491,1.4906,1.4892,1.4923,1.4937,1.4943,1.487,1.4869,1.4869,1.4869,0,0,1.4584,1.4633,1.4641,1.466,1.4696,1.4721,1.4754,1.4788,1.4806,1.4832,1.486,1.4902,1.4898,1.4917,1.4924,1.4945,1.4978,1.4938,1.4938,1.4944,1.5025,1.5028,1.5035,1.4979,1.498,1.4981,1.5023,0,1.4623,1.4685,1.47,1.4751,1.4782,1.4789,1.4817,1.4842,1.4857,1.4884,1.4899,1.4929,1.4922,1.4933,1.4954,1.497,1.4995,1.4967,1.5003,1.5004,1.4995,1.5042,1.5046,1.5084,1.5029,1.503,1.503,0,1.4677,1.4708,1.4763,1.4797,1.481,1.4836,1.4868,1.4894,1.4922,1.4931,1.4953,1.4959,1.4993,1.4978,1.5024,1.5005,1.502,1.503,1.5032,1.5035,1.5019,1.5046,1.5097,1.5102,1.5039,1.5039,1.5038,0,1.4698,1.4752,1.4793,1.4808,1.4848,1.4866,1.4883,1.491,1.493,1.4958,1.4971,1.5001,1.5018,1.5041,1.5055,1.5043,1.5099,1.5086,1.5107,1.5106,1.5117,1.5116,1.517,1.5128,1.5128,1.5128,1.5128,0,1.474,1.4774,1.4803,1.4827,1.4864,1.4881,1.4917,1.4934,1.4959,1.4985,1.4993,1.5017,1.5034,1.5061,1.5072,1.5108,1.5115,1.5123,1.5125,1.5122,1.5121,1.5131,1.5129,1.513,1.5129,1.5129,1.5129,0,1.4769,1.479,1.4834,1.4869,1.4879,1.4905,1.4934,1.4957,1.4973,1.5007,1.5016,1.5039,1.5071,1.5088,1.5127,1.5134,1.5174,1.5175,1.5165,1.5166,1.5186,1.5184,1.5248,1.5257,1.521,1.521,1.5211,0,1.4794,1.4821,1.4859,1.4879,1.4897,1.4928,1.4949,1.4967,1.4988,1.5022,1.5041,1.5074,1.5101,1.5152,1.5171,1.5201,1.5202,1.5223,1.5207,1.5203,1.5202,1.52,1.5203,1.5225,1.5226,1.5226,1.5227,0,1.4837,1.4847,1.4877,1.4912,1.4937,1.4965,1.4992,1.5007,1.5028,1.5051,1.5085,1.5107,1.5148,1.518,1.5212,1.5228,1.523,1.5232,1.5238,1.5235,1.5228,1.5231,1.5173,1.523,1.523,1.5229,1.5229,1.5229,1.4865,1.4889,1.492,1.4954,1.4977,1.5002,1.5026,1.5045,1.5075,1.5111,1.5119,1.5155,1.5182,1.5225,1.5242,1.5269,1.5265,1.5274,1.5276,1.5278,1.5279,1.5224,1.5275,1.5275,1.5275,1.5275,1.5275,0,1.4907,1.4929,1.496,1.4999,1.5025,1.5028,1.5058,1.508,1.5112,1.5138,1.5165,1.5204,1.5235,1.5258,1.529,1.5307,1.5309,1.5314,1.5313,1.5316,1.5281,1.5272,1.5312,1.5312,1.5312,1.5312,1.5312,1.5312,1.4933,1.4973,1.4987,1.5038,1.5058,1.5095,1.5112,1.5135,1.5156,1.52,1.5227,1.5242,1.5267,1.53,1.5329,1.5335,1.5346,1.5351,1.5357,1.5323,1.5319,1.5315,1.5307,1.5354,1.5354,1.539,1.539,1.539]}]]